Year,Month,Day,Hour,Minute,Value (Times are PST for windspeed in km/hr)
2017,06,15,00,00,3.70
2017,06,15,00,01,4.40
2017,06,15,00,02,3.90
2017,06,15,00,03,1.60
2017,06,15,00,04,2.00
2017,06,15,00,05,1.90
2017,06,15,00,06,3.20
2017,06,15,00,07,1.80
2017,06,15,00,08,2.30
2017,06,15,00,09,1.50
2017,06,15,00,10,2.60
2017,06,15,00,11,2.60
2017,06,15,00,12,4.30
2017,06,15,00,13,1.70
2017,06,15,00,14,2.60
2017,06,15,00,15,1.00
2017,06,15,00,16,2.70
2017,06,15,00,17,2.10
2017,06,15,00,18,3.30
2017,06,15,00,19,2.30
2017,06,15,00,20,2.00
2017,06,15,00,21,0.20
2017,06,15,00,22,0.70
2017,06,15,00,23,1.90
2017,06,15,00,24,4.40
2017,06,15,00,25,4.30
2017,06,15,00,26,1.10
2017,06,15,00,27,2.60
2017,06,15,00,28,3.20
2017,06,15,00,29,2.00
2017,06,15,00,30,0.50
2017,06,15,00,31,0.10
2017,06,15,00,32,3.40
2017,06,15,00,33,2.30
2017,06,15,00,34,0.10
2017,06,15,00,35,2.80
2017,06,15,00,36,1.40
2017,06,15,00,37,1.30
2017,06,15,00,38,2.40
2017,06,15,00,39,2.20
2017,06,15,00,40,0.00
2017,06,15,00,41,0.20
2017,06,15,00,42,5.70
2017,06,15,00,43,2.30
2017,06,15,00,44,5.50
2017,06,15,00,45,0.70
2017,06,15,00,46,0.10
2017,06,15,00,47,2.70
2017,06,15,00,48,6.60
2017,06,15,00,49,7.20
2017,06,15,00,50,2.10
2017,06,15,00,51,1.30
2017,06,15,00,52,1.80
2017,06,15,00,53,0.50
2017,06,15,00,54,0.40
2017,06,15,00,55,0.00
2017,06,15,00,56,0.00
2017,06,15,00,57,1.00
2017,06,15,00,58,0.40
2017,06,15,00,59,0.70
2017,06,15,01,00,3.80
2017,06,15,01,01,0.20
2017,06,15,01,02,0.00
2017,06,15,01,03,5.30
2017,06,15,01,04,3.80
2017,06,15,01,05,4.50
2017,06,15,01,06,1.30
2017,06,15,01,07,0.50
2017,06,15,01,08,5.70
2017,06,15,01,09,2.80
2017,06,15,01,10,2.10
2017,06,15,01,11,0.70
2017,06,15,01,12,0.70
2017,06,15,01,13,0.00
2017,06,15,01,14,0.00
2017,06,15,01,15,1.40
2017,06,15,01,16,0.30
2017,06,15,01,17,0.10
2017,06,15,01,18,0.00
2017,06,15,01,19,0.00
2017,06,15,01,20,0.00
2017,06,15,01,21,0.00
2017,06,15,01,22,0.10
2017,06,15,01,23,0.20
2017,06,15,01,24,0.10
2017,06,15,01,25,0.20
2017,06,15,01,26,0.00
2017,06,15,01,27,0.10
2017,06,15,01,28,0.40
2017,06,15,01,29,2.70
2017,06,15,01,30,0.30
2017,06,15,01,31,0.50
2017,06,15,01,32,0.60
2017,06,15,01,33,0.40
2017,06,15,01,34,1.30
2017,06,15,01,35,1.50
2017,06,15,01,36,1.90
2017,06,15,01,37,0.40
2017,06,15,01,38,2.50
2017,06,15,01,39,0.30
2017,06,15,01,40,1.40
2017,06,15,01,41,1.10
2017,06,15,01,42,0.70
2017,06,15,01,43,0.90
2017,06,15,01,44,0.40
2017,06,15,01,45,1.00
2017,06,15,01,46,1.40
2017,06,15,01,47,0.70
2017,06,15,01,48,0.70
2017,06,15,01,49,1.80
2017,06,15,01,50,0.80
2017,06,15,01,51,0.00
2017,06,15,01,52,0.00
2017,06,15,01,53,0.00
2017,06,15,01,54,0.00
2017,06,15,01,55,0.70
2017,06,15,01,56,1.20
2017,06,15,01,57,0.70
2017,06,15,01,58,2.40
2017,06,15,01,59,1.40
2017,06,15,02,00,0.00
2017,06,15,02,01,0.10
2017,06,15,02,02,1.80
2017,06,15,02,03,0.40
2017,06,15,02,04,1.00
2017,06,15,02,05,0.80
2017,06,15,02,06,0.70
2017,06,15,02,07,0.80
2017,06,15,02,08,0.40
2017,06,15,02,09,0.30
2017,06,15,02,10,0.00
2017,06,15,02,11,0.20
2017,06,15,02,12,0.40
2017,06,15,02,13,0.00
2017,06,15,02,14,0.20
2017,06,15,02,15,0.10
2017,06,15,02,16,1.60
2017,06,15,02,17,1.00
2017,06,15,02,18,0.70
2017,06,15,02,19,1.30
2017,06,15,02,20,0.00
2017,06,15,02,21,1.20
2017,06,15,02,22,0.90
2017,06,15,02,23,0.30
2017,06,15,02,24,0.40
2017,06,15,02,25,0.00
2017,06,15,02,26,0.30
2017,06,15,02,27,0.20
2017,06,15,02,28,0.10
2017,06,15,02,29,0.50
2017,06,15,02,30,0.00
2017,06,15,02,31,1.60
2017,06,15,02,32,1.20
2017,06,15,02,33,1.30
2017,06,15,02,34,2.30
2017,06,15,02,35,0.10
2017,06,15,02,36,1.40
2017,06,15,02,37,2.60
2017,06,15,02,38,1.80
2017,06,15,02,39,1.80
2017,06,15,02,40,0.40
2017,06,15,02,41,0.70
2017,06,15,02,42,1.60
2017,06,15,02,43,4.80
2017,06,15,02,44,0.20
2017,06,15,02,45,2.00
2017,06,15,02,46,1.80
2017,06,15,02,47,2.30
2017,06,15,02,48,0.60
2017,06,15,02,49,0.00
2017,06,15,02,50,0.00
2017,06,15,02,51,0.20
2017,06,15,02,52,2.60
2017,06,15,02,53,1.00
2017,06,15,02,54,0.20
2017,06,15,02,55,1.60
2017,06,15,02,56,2.30
2017,06,15,02,57,1.50
2017,06,15,02,58,4.80
2017,06,15,02,59,3.20
2017,06,15,03,00,1.10
2017,06,15,03,01,2.90
2017,06,15,03,02,3.70
2017,06,15,03,03,3.00
2017,06,15,03,04,1.10
2017,06,15,03,05,1.10
2017,06,15,03,06,1.40
2017,06,15,03,07,4.40
2017,06,15,03,08,3.10
2017,06,15,03,09,2.60
2017,06,15,03,10,0.80
2017,06,15,03,11,1.60
2017,06,15,03,12,0.60
2017,06,15,03,13,0.60
2017,06,15,03,14,1.70
2017,06,15,03,15,0.40
2017,06,15,03,16,2.10
2017,06,15,03,17,3.10
2017,06,15,03,18,1.40
2017,06,15,03,19,0.60
2017,06,15,03,20,4.10
2017,06,15,03,21,4.90
2017,06,15,03,22,0.80
2017,06,15,03,23,2.90
2017,06,15,03,24,2.90
2017,06,15,03,25,1.80
2017,06,15,03,26,1.30
2017,06,15,03,27,3.90
2017,06,15,03,28,2.60
2017,06,15,03,29,0.40
2017,06,15,03,30,0.50
2017,06,15,03,31,0.70
2017,06,15,03,32,4.60
2017,06,15,03,33,4.30
2017,06,15,03,34,1.80
2017,06,15,03,35,1.30
2017,06,15,03,36,1.00
2017,06,15,03,37,3.00
2017,06,15,03,38,2.90
2017,06,15,03,39,4.10
2017,06,15,03,40,2.30
2017,06,15,03,41,0.40
2017,06,15,03,42,3.30
2017,06,15,03,43,3.60
2017,06,15,03,44,1.00
2017,06,15,03,45,1.30
2017,06,15,03,46,2.60
2017,06,15,03,47,3.00
2017,06,15,03,48,0.80
2017,06,15,03,49,2.90
2017,06,15,03,50,0.80
2017,06,15,03,51,1.30
2017,06,15,03,52,1.20
2017,06,15,03,53,1.70
2017,06,15,03,54,4.30
2017,06,15,03,55,3.50
2017,06,15,03,56,1.70
2017,06,15,03,57,3.50
2017,06,15,03,58,3.90
2017,06,15,03,59,0.50
2017,06,15,04,00,0.20
2017,06,15,04,01,0.50
2017,06,15,04,02,1.90
2017,06,15,04,03,3.70
2017,06,15,04,04,2.70
2017,06,15,04,05,0.70
2017,06,15,04,06,3.20
2017,06,15,04,07,4.00
2017,06,15,04,08,1.70
2017,06,15,04,09,5.00
2017,06,15,04,10,6.40
2017,06,15,04,11,2.70
2017,06,15,04,12,0.80
2017,06,15,04,13,2.60
2017,06,15,04,14,0.20
2017,06,15,04,15,1.40
2017,06,15,04,16,4.40
2017,06,15,04,17,4.60
2017,06,15,04,18,2.70
2017,06,15,04,19,1.80
2017,06,15,04,20,1.70
2017,06,15,04,21,2.30
2017,06,15,04,22,0.40
2017,06,15,04,23,0.00
2017,06,15,04,24,1.90
2017,06,15,04,25,2.40
2017,06,15,04,26,1.80
2017,06,15,04,27,1.00
2017,06,15,04,28,0.00
2017,06,15,04,29,1.50
2017,06,15,04,30,0.80
2017,06,15,04,31,2.00
2017,06,15,04,32,1.40
2017,06,15,04,33,0.50
2017,06,15,04,34,0.00
2017,06,15,04,35,1.00
2017,06,15,04,36,1.10
2017,06,15,04,37,0.40
2017,06,15,04,38,0.10
2017,06,15,04,39,0.10
2017,06,15,04,40,0.20
2017,06,15,04,41,0.60
2017,06,15,04,42,0.50
2017,06,15,04,43,1.60
2017,06,15,04,44,2.00
2017,06,15,04,45,1.10
2017,06,15,04,46,1.40
2017,06,15,04,47,2.40
2017,06,15,04,48,1.00
2017,06,15,04,49,2.20
2017,06,15,04,50,1.30
2017,06,15,04,51,1.40
2017,06,15,04,52,2.30
2017,06,15,04,53,1.20
2017,06,15,04,54,0.20
2017,06,15,04,55,1.80
2017,06,15,04,56,0.40
2017,06,15,04,57,1.70
2017,06,15,04,58,0.40
2017,06,15,04,59,0.40
2017,06,15,05,00,0.10
2017,06,15,05,01,0.90
2017,06,15,05,02,1.80
2017,06,15,05,03,0.20
2017,06,15,05,04,0.00
2017,06,15,05,05,0.40
2017,06,15,05,06,1.70
2017,06,15,05,07,0.20
2017,06,15,05,08,0.00
2017,06,15,05,09,0.50
2017,06,15,05,10,0.30
2017,06,15,05,11,2.60
2017,06,15,05,12,0.60
2017,06,15,05,13,0.00
2017,06,15,05,14,0.00
2017,06,15,05,15,0.00
2017,06,15,05,16,0.60
2017,06,15,05,17,1.40
2017,06,15,05,18,0.10
2017,06,15,05,19,0.00
2017,06,15,05,20,0.00
2017,06,15,05,21,4.40
2017,06,15,05,22,2.80
2017,06,15,05,23,1.70
2017,06,15,05,24,0.10
2017,06,15,05,25,0.50
2017,06,15,05,26,0.50
2017,06,15,05,27,0.40
2017,06,15,05,28,2.00
2017,06,15,05,29,1.80
2017,06,15,05,30,0.70
2017,06,15,05,31,1.00
2017,06,15,05,32,0.30
2017,06,15,05,33,1.30
2017,06,15,05,34,0.50
2017,06,15,05,35,4.00
2017,06,15,05,36,0.20
2017,06,15,05,37,0.70
2017,06,15,05,38,2.40
2017,06,15,05,39,0.20
2017,06,15,05,40,1.30
2017,06,15,05,41,0.10
2017,06,15,05,42,0.20
2017,06,15,05,43,0.00
2017,06,15,05,44,0.10
2017,06,15,05,45,1.20
2017,06,15,05,46,0.00
2017,06,15,05,47,0.00
2017,06,15,05,48,0.00
2017,06,15,05,49,2.30
2017,06,15,05,50,2.10
2017,06,15,05,51,0.60
2017,06,15,05,52,2.60
2017,06,15,05,53,0.40
2017,06,15,05,54,0.00
2017,06,15,05,55,0.10
2017,06,15,05,56,1.50
2017,06,15,05,57,1.50
2017,06,15,05,58,1.50
2017,06,15,05,59,1.70
2017,06,15,06,00,0.10
2017,06,15,06,01,0.00
2017,06,15,06,02,0.00
2017,06,15,06,03,0.00
2017,06,15,06,04,0.00
2017,06,15,06,05,0.00
2017,06,15,06,06,0.50
2017,06,15,06,07,1.40
2017,06,15,06,08,1.30
2017,06,15,06,09,0.60
2017,06,15,06,10,0.00
2017,06,15,06,11,0.90
2017,06,15,06,12,1.10
2017,06,15,06,13,0.40
2017,06,15,06,14,0.80
2017,06,15,06,15,0.00
2017,06,15,06,16,0.00
2017,06,15,06,17,0.10
2017,06,15,06,18,2.00
2017,06,15,06,19,0.70
2017,06,15,06,20,0.60
2017,06,15,06,21,2.50
2017,06,15,06,22,0.10
2017,06,15,06,23,0.30
2017,06,15,06,24,0.40
2017,06,15,06,25,0.10
2017,06,15,06,26,0.10
2017,06,15,06,27,0.20
2017,06,15,06,28,2.40
2017,06,15,06,29,1.70
2017,06,15,06,30,0.60
2017,06,15,06,31,2.30
2017,06,15,06,32,4.10
2017,06,15,06,33,0.80
2017,06,15,06,34,3.60
2017,06,15,06,35,11.50
2017,06,15,06,36,5.80
2017,06,15,06,37,1.60
2017,06,15,06,38,1.00
2017,06,15,06,39,0.40
2017,06,15,06,40,0.20
2017,06,15,06,41,1.90
2017,06,15,06,42,0.10
2017,06,15,06,43,4.20
2017,06,15,06,44,6.90
2017,06,15,06,45,3.20
2017,06,15,06,46,2.00
2017,06,15,06,47,0.40
2017,06,15,06,48,3.70
2017,06,15,06,49,1.40
2017,06,15,06,50,0.80
2017,06,15,06,51,5.50
2017,06,15,06,52,2.30
2017,06,15,06,53,5.90
2017,06,15,06,54,1.70
2017,06,15,06,55,4.80
2017,06,15,06,56,6.20
2017,06,15,06,57,5.20
2017,06,15,06,58,7.40
2017,06,15,06,59,5.70
2017,06,15,07,00,10.10
2017,06,15,07,01,8.10
2017,06,15,07,02,2.00
2017,06,15,07,03,5.50
2017,06,15,07,04,4.10
2017,06,15,07,05,3.90
2017,06,15,07,06,6.70
2017,06,15,07,07,4.10
2017,06,15,07,08,7.60
2017,06,15,07,09,5.10
2017,06,15,07,10,3.00
2017,06,15,07,11,1.10
2017,06,15,07,12,1.20
2017,06,15,07,13,10.10
2017,06,15,07,14,9.40
2017,06,15,07,15,6.60
2017,06,15,07,16,7.10
2017,06,15,07,17,10.10
2017,06,15,07,18,5.50
2017,06,15,07,19,5.40
2017,06,15,07,20,6.20
2017,06,15,07,21,6.10
2017,06,15,07,22,3.70
2017,06,15,07,23,5.60
2017,06,15,07,24,5.70
2017,06,15,07,25,4.00
2017,06,15,07,26,5.90
2017,06,15,07,27,3.90
2017,06,15,07,28,3.80
2017,06,15,07,29,5.90
2017,06,15,07,30,7.30
2017,06,15,07,31,13.30
2017,06,15,07,32,7.60
2017,06,15,07,33,5.50
2017,06,15,07,34,4.80
2017,06,15,07,35,11.70
2017,06,15,07,36,7.90
2017,06,15,07,37,7.30
2017,06,15,07,38,4.20
2017,06,15,07,39,8.00
2017,06,15,07,40,7.90
2017,06,15,07,41,3.80
2017,06,15,07,42,6.50
2017,06,15,07,43,6.40
2017,06,15,07,44,7.50
2017,06,15,07,45,7.00
2017,06,15,07,46,13.40
2017,06,15,07,47,7.10
2017,06,15,07,48,15.70
2017,06,15,07,49,6.90
2017,06,15,07,50,3.90
2017,06,15,07,51,9.80
2017,06,15,07,52,9.90
2017,06,15,07,53,8.50
2017,06,15,07,54,6.70
2017,06,15,07,55,7.90
2017,06,15,07,56,8.60
2017,06,15,07,57,15.80
2017,06,15,07,58,7.30
2017,06,15,07,59,3.90
2017,06,15,08,00,12.90
2017,06,15,08,01,5.70
2017,06,15,08,02,8.00
2017,06,15,08,03,11.30
2017,06,15,08,04,13.60
2017,06,15,08,05,5.80
2017,06,15,08,06,7.20
2017,06,15,08,07,11.10
2017,06,15,08,08,10.30
2017,06,15,08,09,16.60
2017,06,15,08,10,10.00
2017,06,15,08,11,6.20
2017,06,15,08,12,14.70
2017,06,15,08,13,9.70
2017,06,15,08,14,6.40
2017,06,15,08,15,8.70
2017,06,15,08,16,9.10
2017,06,15,08,17,17.20
2017,06,15,08,18,13.80
2017,06,15,08,19,15.80
2017,06,15,08,20,11.70
2017,06,15,08,21,10.00
2017,06,15,08,22,8.80
2017,06,15,08,23,7.50
2017,06,15,08,24,15.10
2017,06,15,08,25,7.40
2017,06,15,08,26,15.30
2017,06,15,08,27,11.40
2017,06,15,08,28,4.30
2017,06,15,08,29,6.60
2017,06,15,08,30,15.90
2017,06,15,08,31,8.90
2017,06,15,08,32,14.70
2017,06,15,08,33,10.80
2017,06,15,08,34,10.10
2017,06,15,08,35,16.40
2017,06,15,08,36,8.90
2017,06,15,08,37,8.70
2017,06,15,08,38,7.00
2017,06,15,08,39,5.20
2017,06,15,08,40,9.50
2017,06,15,08,41,4.40
2017,06,15,08,42,12.90
2017,06,15,08,43,10.70
2017,06,15,08,44,7.70
2017,06,15,08,45,13.10
2017,06,15,08,46,9.90
2017,06,15,08,47,12.00
2017,06,15,08,48,7.10
2017,06,15,08,49,7.10
2017,06,15,08,50,8.90
2017,06,15,08,51,11.80
2017,06,15,08,52,12.30
2017,06,15,08,53,4.80
2017,06,15,08,54,11.40
2017,06,15,08,55,9.30
2017,06,15,08,56,12.80
2017,06,15,08,57,6.60
2017,06,15,08,58,6.10
2017,06,15,08,59,9.40
2017,06,15,09,00,7.00
2017,06,15,09,01,6.70
2017,06,15,09,02,15.00
2017,06,15,09,03,9.40
2017,06,15,09,04,9.50
2017,06,15,09,05,5.80
2017,06,15,09,06,7.90
2017,06,15,09,07,8.70
2017,06,15,09,08,6.80
2017,06,15,09,09,6.10
2017,06,15,09,10,11.60
2017,06,15,09,11,4.30
2017,06,15,09,12,5.20
2017,06,15,09,13,5.80
2017,06,15,09,14,4.00
2017,06,15,09,15,11.30
2017,06,15,09,16,7.40
2017,06,15,09,17,16.60
2017,06,15,09,18,9.70
2017,06,15,09,19,8.40
2017,06,15,09,20,12.20
2017,06,15,09,21,8.90
2017,06,15,09,22,9.30
2017,06,15,09,23,9.00
2017,06,15,09,24,12.80
2017,06,15,09,25,13.10
2017,06,15,09,26,13.50
2017,06,15,09,27,9.50
2017,06,15,09,28,10.20
2017,06,15,09,29,23.60
2017,06,15,09,30,7.90
2017,06,15,09,31,12.30
2017,06,15,09,32,11.00
2017,06,15,09,33,9.10
2017,06,15,09,34,7.20
2017,06,15,09,35,8.30
2017,06,15,09,36,15.00
2017,06,15,09,37,14.30
2017,06,15,09,38,18.00
2017,06,15,09,39,12.30
2017,06,15,09,40,12.60
2017,06,15,09,41,6.60
2017,06,15,09,42,6.10
2017,06,15,09,43,15.40
2017,06,15,09,44,14.30
2017,06,15,09,45,9.30
2017,06,15,09,46,12.60
2017,06,15,09,47,12.20
2017,06,15,09,48,18.00
2017,06,15,09,49,17.60
2017,06,15,09,50,8.60
2017,06,15,09,51,16.80
2017,06,15,09,52,9.40
2017,06,15,09,53,10.80
2017,06,15,09,54,16.80
2017,06,15,09,55,8.60
2017,06,15,09,56,10.80
2017,06,15,09,57,12.00
2017,06,15,09,58,4.60
2017,06,15,09,59,4.60
2017,06,15,10,00,13.60
2017,06,15,10,01,15.00
2017,06,15,10,02,8.20
2017,06,15,10,03,10.80
2017,06,15,10,04,11.60
2017,06,15,10,05,5.10
2017,06,15,10,06,11.40
2017,06,15,10,07,6.90
2017,06,15,10,08,8.20
2017,06,15,10,09,12.50
2017,06,15,10,10,7.00
2017,06,15,10,11,7.90
2017,06,15,10,12,14.90
2017,06,15,10,13,7.40
2017,06,15,10,14,7.10
2017,06,15,10,15,13.90
2017,06,15,10,16,13.80
2017,06,15,10,17,9.00
2017,06,15,10,18,4.90
2017,06,15,10,19,12.30
2017,06,15,10,20,9.40
2017,06,15,10,21,9.80
2017,06,15,10,22,17.50
2017,06,15,10,23,21.00
2017,06,15,10,24,13.90
2017,06,15,10,25,7.50
2017,06,15,10,26,9.30
2017,06,15,10,27,7.10
2017,06,15,10,28,6.70
2017,06,15,10,29,8.30
2017,06,15,10,30,13.90
2017,06,15,10,31,8.30
2017,06,15,10,32,15.20
2017,06,15,10,33,19.40
2017,06,15,10,34,11.40
2017,06,15,10,35,9.20
2017,06,15,10,36,12.30
2017,06,15,10,37,6.30
2017,06,15,10,38,11.40
2017,06,15,10,39,5.70
2017,06,15,10,40,6.90
2017,06,15,10,41,6.00
2017,06,15,10,42,10.10
2017,06,15,10,43,9.90
2017,06,15,10,44,10.00
2017,06,15,10,45,6.70
2017,06,15,10,46,14.80
2017,06,15,10,47,12.80
2017,06,15,10,48,9.30
2017,06,15,10,49,13.80
2017,06,15,10,50,16.80
2017,06,15,10,51,10.60
2017,06,15,10,52,10.30
2017,06,15,10,53,8.50
2017,06,15,10,54,7.80
2017,06,15,10,55,5.20
2017,06,15,10,56,14.10
2017,06,15,10,57,13.70
2017,06,15,10,58,9.80
2017,06,15,10,59,16.60
2017,06,15,11,00,16.50
2017,06,15,11,01,11.80
2017,06,15,11,02,10.40
2017,06,15,11,03,6.40
2017,06,15,11,04,13.20
2017,06,15,11,05,2.60
2017,06,15,11,06,14.60
2017,06,15,11,07,11.40
2017,06,15,11,08,5.50
2017,06,15,11,09,2.50
2017,06,15,11,10,8.90
2017,06,15,11,11,13.20
2017,06,15,11,12,5.00
2017,06,15,11,13,5.50
2017,06,15,11,14,5.90
2017,06,15,11,15,9.20
2017,06,15,11,16,6.00
2017,06,15,11,17,11.30
2017,06,15,11,18,15.40
2017,06,15,11,19,21.20
2017,06,15,11,20,11.10
2017,06,15,11,21,13.30
2017,06,15,11,22,7.50
2017,06,15,11,23,9.70
2017,06,15,11,24,10.80
2017,06,15,11,25,6.00
2017,06,15,11,26,5.50
2017,06,15,11,27,6.30
2017,06,15,11,28,11.30
2017,06,15,11,29,11.30
2017,06,15,11,30,15.70
2017,06,15,11,31,9.70
2017,06,15,11,32,11.00
2017,06,15,11,33,12.80
2017,06,15,11,34,11.10
2017,06,15,11,35,18.80
2017,06,15,11,36,10.80
2017,06,15,11,37,10.00
2017,06,15,11,38,10.50
2017,06,15,11,39,8.50
2017,06,15,11,40,5.40
2017,06,15,11,41,5.10
2017,06,15,11,42,11.40
2017,06,15,11,43,8.40
2017,06,15,11,44,10.60
2017,06,15,11,45,10.40
2017,06,15,11,46,6.30
2017,06,15,11,47,10.50
2017,06,15,11,48,5.10
2017,06,15,11,49,8.50
2017,06,15,11,50,20.60
2017,06,15,11,51,6.80
2017,06,15,11,52,11.40
2017,06,15,11,53,12.00
2017,06,15,11,54,13.10
2017,06,15,11,55,13.20
2017,06,15,11,56,9.60
2017,06,15,11,57,11.20
2017,06,15,11,58,12.30
2017,06,15,11,59,9.20
2017,06,15,12,00,11.10
2017,06,15,12,01,9.50
2017,06,15,12,02,13.70
2017,06,15,12,03,11.10
2017,06,15,12,04,9.40
2017,06,15,12,05,12.80
2017,06,15,12,06,11.70
2017,06,15,12,07,7.50
2017,06,15,12,08,8.90
2017,06,15,12,09,8.30
2017,06,15,12,10,14.10
2017,06,15,12,11,17.40
2017,06,15,12,12,8.10
2017,06,15,12,13,15.60
2017,06,15,12,14,9.20
2017,06,15,12,15,7.40
2017,06,15,12,16,8.00
2017,06,15,12,17,6.60
2017,06,15,12,18,3.30
2017,06,15,12,19,11.60
2017,06,15,12,20,11.10
2017,06,15,12,21,7.50
2017,06,15,12,22,7.60
2017,06,15,12,23,14.10
2017,06,15,12,24,11.00
2017,06,15,12,25,7.40
2017,06,15,12,26,7.00
2017,06,15,12,27,11.10
2017,06,15,12,28,13.50
2017,06,15,12,29,11.60
2017,06,15,12,30,6.50
2017,06,15,12,31,10.20
2017,06,15,12,32,12.70
2017,06,15,12,33,11.90
2017,06,15,12,34,11.30
2017,06,15,12,35,14.10
2017,06,15,12,36,10.10
2017,06,15,12,37,8.30
2017,06,15,12,38,4.20
2017,06,15,12,39,11.30
2017,06,15,12,40,11.60
2017,06,15,12,41,9.70
2017,06,15,12,42,8.20
2017,06,15,12,43,7.00
2017,06,15,12,44,3.60
2017,06,15,12,45,11.90
2017,06,15,12,46,13.30
2017,06,15,12,47,15.20
2017,06,15,12,48,7.90
2017,06,15,12,49,10.30
2017,06,15,12,50,15.70
2017,06,15,12,51,12.80
2017,06,15,12,52,8.90
2017,06,15,12,53,9.70
2017,06,15,12,54,7.70
2017,06,15,12,55,14.70
2017,06,15,12,56,15.70
2017,06,15,12,57,13.10
2017,06,15,12,58,15.60
2017,06,15,12,59,7.30
2017,06,15,13,00,8.70
2017,06,15,13,01,18.60
2017,06,15,13,02,9.50
2017,06,15,13,03,17.10
2017,06,15,13,04,7.00
2017,06,15,13,05,5.80
2017,06,15,13,06,17.00
2017,06,15,13,07,9.30
2017,06,15,13,08,12.60
2017,06,15,13,09,7.70
2017,06,15,13,10,4.50
2017,06,15,13,11,15.30
2017,06,15,13,12,15.00
2017,06,15,13,13,7.80
2017,06,15,13,14,6.80
2017,06,15,13,15,10.50
2017,06,15,13,16,8.80
2017,06,15,13,17,15.40
2017,06,15,13,18,12.20
2017,06,15,13,19,21.20
2017,06,15,13,20,12.00
2017,06,15,13,21,8.20
2017,06,15,13,22,9.90
2017,06,15,13,23,10.40
2017,06,15,13,24,17.00
2017,06,15,13,25,11.60
2017,06,15,13,26,19.30
2017,06,15,13,27,12.50
2017,06,15,13,28,12.50
2017,06,15,13,29,17.50
2017,06,15,13,30,12.90
2017,06,15,13,31,11.70
2017,06,15,13,32,16.60
2017,06,15,13,33,14.50
2017,06,15,13,34,16.00
2017,06,15,13,35,13.90
2017,06,15,13,36,13.60
2017,06,15,13,37,10.70
2017,06,15,13,38,12.80
2017,06,15,13,39,14.00
2017,06,15,13,40,16.30
2017,06,15,13,41,13.50
2017,06,15,13,42,8.30
2017,06,15,13,43,10.00
2017,06,15,13,44,13.70
2017,06,15,13,45,11.90
2017,06,15,13,46,14.40
2017,06,15,13,47,12.90
2017,06,15,13,48,14.50
2017,06,15,13,49,10.80
2017,06,15,13,50,6.10
2017,06,15,13,51,11.70
2017,06,15,13,52,20.90
2017,06,15,13,53,10.10
2017,06,15,13,54,16.50
2017,06,15,13,55,13.80
2017,06,15,13,56,14.90
2017,06,15,13,57,12.90
2017,06,15,13,58,12.30
2017,06,15,13,59,11.40
2017,06,15,14,00,12.90
2017,06,15,14,01,5.80
2017,06,15,14,02,13.90
2017,06,15,14,03,18.80
2017,06,15,14,04,9.50
2017,06,15,14,05,10.70
2017,06,15,14,06,10.60
2017,06,15,14,07,8.00
2017,06,15,14,08,13.70
2017,06,15,14,09,10.90
2017,06,15,14,10,12.20
2017,06,15,14,11,16.20
2017,06,15,14,12,17.40
2017,06,15,14,13,12.00
2017,06,15,14,14,13.20
2017,06,15,14,15,15.60
2017,06,15,14,16,12.40
2017,06,15,14,17,13.90
2017,06,15,14,18,13.70
2017,06,15,14,19,9.70
2017,06,15,14,20,20.30
2017,06,15,14,21,13.40
2017,06,15,14,22,9.60
2017,06,15,14,23,16.20
2017,06,15,14,24,12.50
2017,06,15,14,25,9.20
2017,06,15,14,26,14.90
2017,06,15,14,27,9.70
2017,06,15,14,28,14.60
2017,06,15,14,29,11.80
2017,06,15,14,30,12.70
2017,06,15,14,31,19.60
2017,06,15,14,32,9.20
2017,06,15,14,33,12.60
2017,06,15,14,34,10.80
2017,06,15,14,35,24.00
2017,06,15,14,36,10.80
2017,06,15,14,37,11.00
2017,06,15,14,38,7.90
2017,06,15,14,39,8.10
2017,06,15,14,40,16.50
2017,06,15,14,41,12.90
2017,06,15,14,42,11.60
2017,06,15,14,43,13.60
2017,06,15,14,44,10.60
2017,06,15,14,45,7.20
2017,06,15,14,46,7.50
2017,06,15,14,47,7.90
2017,06,15,14,48,16.10
2017,06,15,14,49,12.90
2017,06,15,14,50,21.70
2017,06,15,14,51,8.30
2017,06,15,14,52,6.20
2017,06,15,14,53,6.50
2017,06,15,14,54,16.10
2017,06,15,14,55,17.60
2017,06,15,14,56,7.10
2017,06,15,14,57,4.40
2017,06,15,14,58,10.50
2017,06,15,14,59,11.10
2017,06,15,15,00,17.00
2017,06,15,15,01,5.40
2017,06,15,15,02,14.50
2017,06,15,15,03,8.40
2017,06,15,15,04,8.30
2017,06,15,15,05,14.20
2017,06,15,15,06,17.70
2017,06,15,15,07,9.20
2017,06,15,15,08,8.30
2017,06,15,15,09,11.80
2017,06,15,15,10,13.90
2017,06,15,15,11,13.20
2017,06,15,15,12,9.20
2017,06,15,15,13,13.00
2017,06,15,15,14,10.30
2017,06,15,15,15,14.40
2017,06,15,15,16,8.00
2017,06,15,15,17,9.50
2017,06,15,15,18,10.10
2017,06,15,15,19,12.50
2017,06,15,15,20,11.80
2017,06,15,15,21,7.80
2017,06,15,15,22,7.60
2017,06,15,15,23,11.60
2017,06,15,15,24,22.70
2017,06,15,15,25,7.50
2017,06,15,15,26,9.70
2017,06,15,15,27,10.40
2017,06,15,15,28,10.00
2017,06,15,15,29,6.30
2017,06,15,15,30,5.40
2017,06,15,15,31,7.00
2017,06,15,15,32,14.10
2017,06,15,15,33,14.40
2017,06,15,15,34,12.80
2017,06,15,15,35,9.40
2017,06,15,15,36,7.80
2017,06,15,15,37,3.10
2017,06,15,15,38,9.20
2017,06,15,15,39,7.00
2017,06,15,15,40,10.40
2017,06,15,15,41,6.20
2017,06,15,15,42,10.50
2017,06,15,15,43,9.30
2017,06,15,15,44,9.20
2017,06,15,15,45,12.50
2017,06,15,15,46,10.30
2017,06,15,15,47,18.70
2017,06,15,15,48,14.60
2017,06,15,15,49,11.80
2017,06,15,15,50,5.40
2017,06,15,15,51,13.60
2017,06,15,15,52,16.90
2017,06,15,15,53,10.20
2017,06,15,15,54,19.00
2017,06,15,15,55,9.40
2017,06,15,15,56,13.70
2017,06,15,15,57,7.80
2017,06,15,15,58,6.50
2017,06,15,15,59,15.60
2017,06,15,16,00,18.90
2017,06,15,16,01,9.20
2017,06,15,16,02,13.40
2017,06,15,16,03,11.80
2017,06,15,16,04,7.70
2017,06,15,16,05,14.10
2017,06,15,16,06,10.10
2017,06,15,16,07,7.80
2017,06,15,16,08,12.40
2017,06,15,16,09,14.90
2017,06,15,16,10,12.30
2017,06,15,16,11,13.60
2017,06,15,16,12,15.00
2017,06,15,16,13,8.20
2017,06,15,16,14,14.50
2017,06,15,16,15,8.80
2017,06,15,16,16,5.40
2017,06,15,16,17,11.10
2017,06,15,16,18,9.70
2017,06,15,16,19,11.70
2017,06,15,16,20,7.70
2017,06,15,16,21,9.00
2017,06,15,16,22,11.50
2017,06,15,16,23,5.40
2017,06,15,16,24,8.40
2017,06,15,16,25,3.00
2017,06,15,16,26,3.90
2017,06,15,16,27,11.30
2017,06,15,16,28,14.50
2017,06,15,16,29,7.00
2017,06,15,16,30,7.30
2017,06,15,16,31,7.80
2017,06,15,16,32,8.40
2017,06,15,16,33,4.80
2017,06,15,16,34,7.30
2017,06,15,16,35,4.50
2017,06,15,16,36,16.90
2017,06,15,16,37,14.00
2017,06,15,16,38,7.20
2017,06,15,16,39,14.50
2017,06,15,16,40,15.10
2017,06,15,16,41,10.80
2017,06,15,16,42,13.30
2017,06,15,16,43,11.40
2017,06,15,16,44,4.90
2017,06,15,16,45,14.80
2017,06,15,16,46,14.70
2017,06,15,16,47,11.00
2017,06,15,16,48,14.80
2017,06,15,16,49,6.30
2017,06,15,16,50,10.80
2017,06,15,16,51,9.00
2017,06,15,16,52,5.20
2017,06,15,16,53,8.40
2017,06,15,16,54,4.80
2017,06,15,16,55,6.90
2017,06,15,16,56,16.20
2017,06,15,16,57,10.80
2017,06,15,16,58,13.80
2017,06,15,16,59,12.50
2017,06,15,17,00,11.40
2017,06,15,17,01,11.00
2017,06,15,17,02,11.50
2017,06,15,17,03,7.30
2017,06,15,17,04,13.20
2017,06,15,17,05,6.60
2017,06,15,17,06,7.60
2017,06,15,17,07,16.30
2017,06,15,17,08,9.10
2017,06,15,17,09,11.40
2017,06,15,17,10,10.60
2017,06,15,17,11,11.80
2017,06,15,17,12,10.70
2017,06,15,17,13,18.20
2017,06,15,17,14,14.30
2017,06,15,17,15,16.20
2017,06,15,17,16,6.90
2017,06,15,17,17,11.70
2017,06,15,17,18,11.30
2017,06,15,17,19,5.20
2017,06,15,17,20,3.70
2017,06,15,17,21,9.50
2017,06,15,17,22,10.80
2017,06,15,17,23,10.00
2017,06,15,17,24,4.50
2017,06,15,17,25,4.90
2017,06,15,17,26,12.10
2017,06,15,17,27,8.00
2017,06,15,17,28,12.80
2017,06,15,17,29,7.00
2017,06,15,17,30,8.80
2017,06,15,17,31,9.30
2017,06,15,17,32,16.50
2017,06,15,17,33,15.30
2017,06,15,17,34,9.90
2017,06,15,17,35,9.20
2017,06,15,17,36,11.20
2017,06,15,17,37,8.80
2017,06,15,17,38,9.40
2017,06,15,17,39,8.50
2017,06,15,17,40,3.90
2017,06,15,17,41,4.90
2017,06,15,17,42,9.20
2017,06,15,17,43,6.60
2017,06,15,17,44,4.10
2017,06,15,17,45,7.00
2017,06,15,17,46,9.20
2017,06,15,17,47,5.50
2017,06,15,17,48,14.20
2017,06,15,17,49,11.30
2017,06,15,17,50,18.20
2017,06,15,17,51,10.70